| time (UTC) | temp F | wind direction | speed MPH | gust MPH | rain 1hr in | rain 24hr in | rain mn in | humidity % | barometer mb |
| 20260510203830 | 76 | 4 | 1.0 | 5.0 | 0.00 | 0.01 | 0.01 | 45 | 1018.7 |
| 20260510202827 | 75 | 13 | 1.0 | 3.0 | 0.00 | 0.01 | 0.01 | 46 | 1018.7 |
| 20260510201827 | 75 | 50 | 0.0 | 3.0 | 0.00 | 0.01 | 0.01 | 50 | 1018.8 |
| 20260510200926 | 74 | 106 | 0.0 | 3.0 | 0.00 | 0.01 | 0.01 | 47 | 1018.7 |
| 20260510195927 | 74 | 322 | 0.0 | 4.0 | 0.00 | 0.01 | 0.01 | 49 | 1018.8 |
| 20260510194928 | 71 | 90 | 0.0 | 2.0 | 0.00 | 0.01 | 0.01 | 50 | 1018.8 |
| 20260510194829 | 71 | 79 | 0.0 | 3.0 | 0.00 | 0.01 | 0.01 | 49 | 1018.9 |
| 20260510193926 | 69 | 252 | 1.0 | 3.0 | 0.00 | 0.01 | 0.01 | 43 | 1018.8 |
| 20260510192927 | 71 | 260 | 1.0 | 4.0 | 0.00 | 0.01 | 0.01 | 47 | 1019.0 |
| 20260510191928 | 71 | 259 | 2.0 | 3.0 | 0.00 | 0.01 | 0.01 | 52 | 1018.9 |
| 20260510190944 | 69 | 68 | 1.0 | 4.0 | 0.00 | 0.01 | 0.01 | 49 | 1018.8 |
| 20260510190043 | 71 | 253 | 3.0 | 5.0 | 0.00 | 0.01 | 0.01 | 49 | 1019.0 |
| 20260510185028 | 71 | 287 | 1.0 | 2.0 | 0.00 | 0.01 | 0.01 | 54 | 1018.9 |
| 20260510184028 | 70 | 12 | 0.0 | 0.0 | 0.00 | 0.01 | 0.01 | 53 | 1018.8 |
| 20260510182027 | 70 | 304 | 0.0 | 2.0 | 0.00 | 0.01 | 0.01 | 51 | 1018.8 |
| 20260510181028 | 69 | 62 | 0.0 | 1.0 | 0.00 | 0.01 | 0.01 | 52 | 1018.8 |
| 20260510180028 | 69 | 287 | 0.0 | 2.0 | 0.00 | 0.01 | 0.01 | 53 | 1019.0 |
| 20260510175029 | 69 | 62 | 2.0 | 3.0 | 0.00 | 0.01 | 0.01 | 53 | 1018.9 |
| 20260510174027 | 69 | 42 | 1.0 | 3.0 | 0.00 | 0.02 | 0.01 | 52 | 1018.5 |
| 20260510173043 | 69 | 64 | 2.0 | 3.0 | 0.00 | 0.02 | 0.01 | 53 | 1018.6 |
| 20260510172927 | 69 | 255 | 1.0 | 4.0 | 0.00 | 0.02 | 0.01 | 52 | 1018.7 |
| 20260510171928 | 68 | 284 | 1.0 | 4.0 | 0.00 | 0.02 | 0.01 | 52 | 1018.6 |
| 20260510165928 | 69 | 262 | 2.0 | 4.0 | 0.00 | 0.02 | 0.01 | 52 | 1018.5 |
| 20260510164026 | 68 | 24 | 0.0 | 3.0 | 0.00 | 0.02 | 0.01 | 54 | 1018.7 |
| 20260510163926 | 68 | 54 | 2.0 | 5.0 | 0.00 | 0.02 | 0.01 | 55 | 1018.8 |
| 20260510162927 | 68 | 336 | 2.0 | 8.0 | 0.00 | 0.02 | 0.01 | 52 | 1018.7 |
| 20260510162026 | 67 | 318 | 0.0 | 0.0 | 0.00 | 0.02 | 0.01 | 53 | 1018.8 |
| 20260510161027 | 67 | 357 | 2.0 | 7.0 | 0.00 | 0.02 | 0.01 | 52 | 1018.8 |
| 20260510160028 | 67 | 351 | 0.0 | 3.0 | 0.00 | 0.02 | 0.01 | 53 | 1018.7 |
| 20260510155028 | 67 | 196 | 1.0 | 4.0 | 0.00 | 0.02 | 0.01 | 52 | 1018.6 |
| 20260510154126 | 67 | 52 | 6.0 | 10.0 | 0.00 | 0.02 | 0.01 | 57 | 1018.6 |
| 20260510153126 | 65 | 34 | 3.0 | 7.0 | 0.00 | 0.02 | 0.01 | 62 | 1018.6 |
| 20260510153026 | 65 | 315 | 1.0 | 3.0 | 0.00 | 0.02 | 0.01 | 61 | 1018.6 |
| 20260510152027 | 63 | 62 | 5.0 | 7.0 | 0.00 | 0.02 | 0.01 | 61 | 1018.5 |
| 20260510151125 | 62 | 71 | 5.0 | 6.0 | 0.00 | 0.02 | 0.01 | 58 | 1018.3 |
| 20260510145127 | 61 | 52 | 3.0 | 7.0 | 0.00 | 0.02 | 0.01 | 59 | 1018.2 |
| 20260510143226 | 61 | 359 | 1.0 | 2.0 | 0.00 | 0.02 | 0.01 | 62 | 1017.7 |
| 20260510141227 | 60 | 52 | 4.0 | 6.0 | 0.00 | 0.02 | 0.01 | 65 | 1017.5 |
| 20260510140325 | 58 | 52 | 4.0 | 7.0 | 0.00 | 0.02 | 0.01 | 65 | 1017.4 |
| 20260510135325 | 58 | 46 | 3.0 | 8.0 | 0.00 | 0.02 | 0.01 | 70 | 1017.5 |
| 20260510134326 | 57 | 43 | 3.0 | 7.0 | 0.00 | 0.02 | 0.01 | 72 | 1017.3 |
| 20260510133326 | 57 | 13 | 0.0 | 3.0 | 0.00 | 0.02 | 0.01 | 73 | 1017.4 |
| 20260510132342 | 57 | 52 | 4.0 | 6.0 | 0.00 | 0.02 | 0.01 | 75 | 1017.2 |
| 20260510131328 | 56 | 44 | 1.0 | 3.0 | 0.00 | 0.02 | 0.01 | 80 | 1016.9 |
| 20260510130426 | 55 | 48 | 4.0 | 6.0 | 0.00 | 0.02 | 0.01 | 85 | 1017.0 |
| 20260510125427 | 55 | 360 | 0.0 | 0.0 | 0.01 | 0.02 | 0.01 | 85 | 1016.8 |
| 20260510124427 | 55 | 67 | 0.0 | 1.0 | 0.01 | 0.03 | 0.01 | 88 | 1016.9 |
| 20260510123429 | 54 | 360 | 0.0 | 0.0 | 0.01 | 0.04 | 0.01 | 87 | 1016.7 |
| 20260510122426 | 53 | 45 | 0.0 | 0.0 | 0.01 | 0.05 | 0.01 | 83 | 1016.6 |
| 20260510121427 | 53 | 45 | 0.0 | 0.0 | 0.01 | 0.05 | 0.01 | 82 | 1016.4 |
| 20260510120427 | 53 | 45 | 0.0 | 0.0 | 0.01 | 0.05 | 0.01 | 81 | 1016.4 |
| 20260510113626 | 54 | 360 | 0.0 | 0.0 | 0.00 | 0.04 | 0.00 | 76 | 1015.7 |
| 20260510112627 | 54 | 360 | 0.0 | 0.0 | 0.00 | 0.05 | 0.00 | 75 | 1015.7 |
| 20260510111627 | 54 | 360 | 0.0 | 0.0 | 0.00 | 0.05 | 0.00 | 76 | 1015.4 |
| 20260510110626 | 54 | 315 | 0.0 | 0.0 | 0.00 | 0.05 | 0.00 | 76 | 1015.4 |
| 20260510104627 | 54 | 337 | 0.0 | 0.0 | 0.00 | 0.05 | 0.00 | 79 | 1015.1 |
| 20260510104528 | 54 | 337 | 0.0 | 0.0 | 0.00 | 0.05 | 0.00 | 80 | 1015.2 |
| 20260510103526 | 54 | 360 | 0.0 | 0.0 | 0.00 | 0.06 | 0.00 | 83 | 1014.8 |
| 20260510102526 | 53 | 337 | 0.0 | 0.0 | 0.00 | 0.06 | 0.00 | 83 | 1014.6 |
| 20260510101525 | 53 | 337 | 0.0 | 0.0 | 0.00 | 0.07 | 0.00 | 86 | 1014.3 |
| 20260510100526 | 53 | 337 | 0.0 | 0.0 | 0.00 | 0.08 | 0.00 | 87 | 1014.2 |
| 20260510095526 | 53 | 337 | 0.0 | 0.0 | 0.00 | 0.08 | 0.00 | 89 | 1013.9 |
| 20260510094527 | 53 | 337 | 0.0 | 0.0 | 0.00 | 0.09 | 0.00 | 90 | 1013.9 |
| 20260510093625 | 53 | 337 | 0.0 | 0.0 | 0.00 | 0.09 | 0.00 | 91 | 1013.7 |
| 20260510092626 | 53 | 247 | 0.0 | 0.0 | 0.00 | 0.10 | 0.00 | 88 | 1013.7 |
| 20260510091626 | 53 | 247 | 0.0 | 0.0 | 0.00 | 0.10 | 0.00 | 88 | 1013.5 |
| 20260510085627 | 55 | 247 | 0.0 | 0.0 | 0.00 | 0.12 | 0.00 | 87 | 1013.1 |
| 20260510083627 | 56 | 270 | 2.0 | 2.0 | 0.00 | 0.13 | 0.00 | 86 | 1012.9 |
| 20260510082725 | 56 | 247 | 0.0 | 0.0 | 0.00 | 0.14 | 0.00 | 85 | 1012.6 |
| 20260510081806 | 56 | 250 | 2.0 | 3.0 | 0.00 | 0.14 | 0.00 | 84 | 1012.6 |
| 20260510080807 | 56 | 238 | 3.0 | 4.0 | 0.00 | 0.14 | 0.00 | 83 | 1012.4 |
| 20260510075824 | 57 | 225 | 2.0 | 3.0 | 0.00 | 0.15 | 0.00 | 79 | 1012.3 |
| 20260510073808 | 59 | 247 | 2.0 | 4.0 | 0.00 | 0.16 | 0.00 | 79 | 1012.0 |
| 20260510072806 | 58 | 258 | 2.0 | 5.0 | 0.00 | 0.17 | 0.00 | 81 | 1012.1 |
| 20260510071808 | 58 | 315 | 0.0 | 0.0 | 0.00 | 0.17 | 0.00 | 81 | 1011.8 |
| 20260510070807 | 59 | 299 | 0.0 | 2.0 | 0.00 | 0.18 | 0.00 | 78 | 1012.0 |
| 20260510065905 | 59 | 255 | 6.0 | 11.0 | 0.00 | 0.19 | 0.00 | 77 | 1012.3 |
| 20260510064006 | 60 | 249 | 3.0 | 5.0 | 0.00 | 0.20 | 0.00 | 76 | 1012.3 |
| 20260510063022 | 60 | 235 | 2.0 | 4.0 | 0.00 | 0.21 | 0.00 | 76 | 1012.3 |
| 20260510062105 | 61 | 244 | 2.0 | 4.0 | 0.00 | 0.21 | 0.00 | 74 | 1012.5 |
| 20260510061108 | 61 | 262 | 2.0 | 3.0 | 0.00 | 0.21 | 0.00 | 73 | 1012.2 |
| 20260510060107 | 61 | 252 | 2.0 | 3.0 | 0.00 | 0.21 | 0.00 | 72 | 1012.6 |
| 20260510055106 | 61 | 259 | 4.0 | 6.0 | 0.00 | 0.21 | 0.00 | 72 | 1012.5 |
| 20260510054107 | 61 | 254 | 4.0 | 7.0 | 0.00 | 0.21 | 0.00 | 75 | 1012.5 |
| 20260510052106 | 59 | 273 | 3.0 | 7.0 | 0.00 | 0.21 | 0.00 | 78 | 1012.4 |
| 20260510050305 | 60 | 225 | 3.0 | 4.0 | 0.00 | 0.21 | 0.00 | 76 | 1011.9 |
| 20260510045307 | 60 | 216 | 3.0 | 3.0 | 0.00 | 0.21 | 0.00 | 75 | 1011.9 |
| 20260510044307 | 60 | 217 | 3.0 | 5.0 | 0.00 | 0.22 | 0.00 | 74 | 1011.9 |
| 20260510043323 | 60 | 225 | 4.0 | 5.0 | 0.00 | 0.22 | 0.00 | 75 | 1011.9 |
| 20260510042307 | 60 | 225 | 4.0 | 6.0 | 0.00 | 0.22 | 0.00 | 74 | 1011.6 |
| 20260510041407 | 60 | 226 | 4.0 | 5.0 | 0.00 | 0.22 | 0.00 | 76 | 1011.6 |
| 20260510040407 | 59 | 224 | 5.0 | 6.0 | 0.00 | 0.22 | 0.00 | 77 | 1011.6 |
| 20260510034502 | 60 | 225 | 1.0 | 2.0 | 0.00 | 0.22 | 0.22 | 73 | 1011.6 |
| 20260510033459 | 61 | 222 | 4.0 | 5.0 | 0.00 | 0.22 | 0.22 | 72 | 1011.5 |
| 20260510032501 | 61 | 224 | 3.0 | 5.0 | 0.00 | 0.22 | 0.22 | 70 | 1011.4 |
| 20260510032401 | 61 | 229 | 4.0 | 5.0 | 0.00 | 0.22 | 0.22 | 70 | 1011.4 |
| 20260510031401 | 62 | 223 | 4.0 | 5.0 | 0.00 | 0.22 | 0.22 | 70 | 1011.4 |
| 20260510031301 | 62 | 223 | 3.0 | 5.0 | 0.00 | 0.22 | 0.22 | 70 | 1011.4 |
| 20260510030400 | 62 | 225 | 5.0 | 6.0 | 0.00 | 0.22 | 0.22 | 70 | 1011.2 |
| 20260510025402 | 61 | 231 | 3.0 | 5.0 | 0.00 | 0.22 | 0.22 | 72 | 1011.4 |
| 20260510023400 | 61 | 252 | 1.0 | 2.0 | 0.00 | 0.22 | 0.22 | 70 | 1011.2 |
| 20260510023316 | 61 | 232 | 2.0 | 3.0 | 0.00 | 0.22 | 0.22 | 69 | 1011.1 |
| 20260510022306 | 62 | 239 | 2.0 | 3.0 | 0.00 | 0.22 | 0.22 | 69 | 1011.0 |
| 20260510021302 | 62 | 251 | 2.0 | 3.0 | 0.00 | 0.22 | 0.22 | 68 | 1010.9 |
| 20260510015400 | 62 | 207 | 2.0 | 3.0 | 0.00 | 0.22 | 0.22 | 67 | 1010.7 |
| 20260510013500 | 63 | 231 | 1.0 | 2.0 | 0.00 | 0.22 | 0.22 | 64 | 1010.5 |
| 20260510012501 | 63 | 228 | 4.0 | 6.0 | 0.00 | 0.22 | 0.22 | 65 | 1010.2 |
| 20260510012402 | 63 | 225 | 4.0 | 6.0 | 0.00 | 0.22 | 0.22 | 65 | 1010.2 |
| 20260510010401 | 64 | 231 | 3.0 | 4.0 | 0.00 | 0.22 | 0.22 | 64 | 1009.9 |
| 20260510005359 | 64 | 222 | 1.0 | 3.0 | 0.00 | 0.22 | 0.22 | 62 | 1010.0 |
| 20260510004401 | 66 | 225 | 2.0 | 3.0 | 0.00 | 0.22 | 0.22 | 61 | 1009.9 |
| 20260510001500 | 67 | 227 | 3.0 | 4.0 | 0.00 | 0.22 | 0.22 | 57 | 1009.4 |
| 20260510001402 | 67 | 222 | 4.0 | 5.0 | 0.00 | 0.22 | 0.22 | 58 | 1009.5 |
| 20260510000403 | 68 | 225 | 4.0 | 6.0 | 0.00 | 0.22 | 0.22 | 56 | 1009.4 |
| 20260509235401 | 68 | 234 | 4.0 | 7.0 | 0.00 | 0.22 | 0.22 | 56 | 1009.3 |
| 20260509233402 | 70 | 244 | 5.0 | 6.0 | 0.00 | 0.22 | 0.22 | 52 | 1009.2 |
| 20260509232401 | 70 | 218 | 9.0 | 12.0 | 0.00 | 0.22 | 0.22 | 53 | 1009.0 |
| 20260509231400 | 70 | 223 | 6.0 | 10.0 | 0.00 | 0.22 | 0.22 | 52 | 1008.9 |
| 20260509230401 | 70 | 235 | 10.0 | 15.0 | 0.00 | 0.22 | 0.22 | 51 | 1008.8 |
| 20260509225459 | 71 | 217 | 8.0 | 14.0 | 0.00 | 0.22 | 0.22 | 50 | 1008.7 |
| 20260509224503 | 71 | 226 | 10.0 | 14.0 | 0.00 | 0.22 | 0.22 | 51 | 1008.8 |
| 20260509222601 | 71 | 211 | 9.0 | 14.0 | 0.00 | 0.22 | 0.22 | 54 | 1008.7 |
| 20260509221601 | 71 | 217 | 5.0 | 9.0 | 0.00 | 0.22 | 0.22 | 53 | 1008.6 |
| 20260509220601 | 71 | 235 | 6.0 | 8.0 | 0.00 | 0.22 | 0.22 | 54 | 1008.6 |
| 20260509215600 | 71 | 224 | 10.0 | 12.0 | 0.00 | 0.22 | 0.22 | 54 | 1008.8 |
| 20260509214559 | 71 | 217 | 9.0 | 15.0 | 0.00 | 0.22 | 0.22 | 56 | 1008.8 |
| 20260509212559 | 70 | 227 | 8.0 | 12.0 | 0.00 | 0.22 | 0.22 | 57 | 1009.0 |
| 20260509210659 | 70 | 191 | 10.0 | 14.0 | 0.00 | 0.22 | 0.22 | 58 | 1009.1 |
| 20260509205659 | 71 | 215 | 10.0 | 16.0 | 0.00 | 0.22 | 0.22 | 59 | 1009.1 |
| 20260509204701 | 70 | 206 | 9.0 | 11.0 | 0.00 | 0.22 | 0.22 | 59 | 1009.2 |